Location: Mannheim
(49.4880°N, 8.4650°E)
Time: 05:24:06
(UTC+02:00)

ISS - Pass Details

Date: 24 May 2022
Orbit: 414 x 420 km, 51.6° (Epoch: 03 July)

Event Time Altitude Azimuth Distance (km) Brightness Sun altitude
Rises 22:22:03 0° 285° (WNW) 2,371 1.1 -9.0°
Reaches altitude 10° 22:24:10 10° 288° (WNW) 1,503 0.1 -9.2°
Maximum altitude 22:27:32 71° 13° (NNE) 447 -3.5 -9.6°
Drops below altitude 10° 22:30:53 10° 98° (E) 1,495 -1.4 -9.9°
Enters shadow 22:31:09 - 98° (E) 1,599 -1.3 -10.0°
